Regional Weather Roundup
Issued by NWS Goodland, KS

Home | Current Version | Previous Version | Graphics & Text | Print | Product List | Glossary On
Versions: 1 2 3 4 5 6 7 8 9 10 11 12 13 14 15 16 17 18 19 20 21 22 23 24 25 26 27 28 29 30 31 32 33 34 35 36 37 38 39 40 41 42 43 44 45 46 47 48 49 50
000
ASUS43 KGLD 231159
RWRGLD

GOODLAND FORECAST AREA HOURLY WEATHER ROUNDUP
NATIONAL WEATHER SERVICE GOODLAND KS
600 AM MDT MON APR 23 2018

...OFFICIAL OBSERVATIONS...

CITY           SKY/WX    TMP DP  RH WIND       PRES   REMARKS
GOODLAND KS    CLEAR     31  29  92 S5        30.15S
HILL CITY KS   MOCLDY    39  37  92 W7        30.17S
IMPERIAL NEB   CLEAR     32  32 100 SE5       30.15S
MCCOOK NEB     CLEAR     32  32 100 W7        30.17S FOG
AKRON CO       CLEAR     36  33  89 S10       30.10S
BURLINGTON CO  CLEAR     33  31  92 SW9       30.15S
LIMON CO       CLEAR     29  28  96 CALM      30.13F
$$

...UNOFFICIAL OBSERVATIONS...

CITY           SKY/WX    TMP DP  RH WIND       PRES   REMARKS
NORTON KS      CLEAR     36  34  93 W7        30.16
KIT CARSON CO    N/A     32  29  88 CALM        N/A
YUMA CO        FAIR      32  32 100 S7        30.12S
$$



USA.gov is the U.S. government's official web portal to all federal, state and local government web resources and services.